Wind_Speed
45 44 37 34 22 17 13 9 7 4 8 14 10 34 37 33 30 27 24 21 19 16 15 15 14 13 14 14 16 17 19 21 21 21 22 23 26 25
40 41 45 44 34 23 16 12 9 7 2 22 21 10 30 36 33 30 26 22 20 18 18 16 14 14 14 14 16 18 19 20 21 22 23 27 24 24
42 44 46 41 45 39 23 17 15 8 3 3 11 17 11 28 34 31 26 23 21 19 19 17 14 15 14 14 16 18 19 20 21 24 25 27 24 27
40 39 39 41 42 46 41 28 17 14 6 5 11 13 15 13 27 29 27 24 21 19 20 17 15 15 13 15 17 17 19 19 21 24 25 25 29 32
38 42 41 42 36 33 40 35 28 19 12 8 8 11 12 14 17 26 28 24 20 20 19 17 16 14 14 14 16 17 17 18 22 23 23 27 32 32
39 36 37 43 37 40 39 39 37 26 18 11 9 11 9 10 17 22 24 22 21 20 16 16 15 12 14 14 13 14 16 19 21 20 23 29 31 30
36 41 43 43 42 42 41 38 38 29 23 18 12 10 12 12 17 17 18 19 21 16 11 14 11 11 12 10 11 15 17 19 18 19 26 28 29 28
37 40 40 40 39 38 38 38 41 40 32 26 19 14 19 16 18 17 19 10 4 14 11 10 10 6 7 11 13 15 18 16 16 24 26 27 26 30
38 39 36 39 38 39 36 34 33 39 40 37 30 24 20 21 24 23 21 16 9 10 8 4 5 5 7 9 12 15 12 13 22 25 25 24 28 29
43 42 42 41 41 40 38 34 33 34 39 37 32 26 20 18 18 17 19 14 9 6 5 3 3 3 7 9 10 8 8 17 21 24 22 26 29 29
40 42 43 42 41 41 37 36 35 34 36 36 29 25 19 12 15 18 19 17 4 5 7 5 3 4 6 7 4 5 13 16 23 19 26 27 29 31
35 38 40 42 43 40 40 40 34 38 38 37 31 27 19 16 17 16 14 16 8 5 9 7 1 2 2 3 4 9 13 19 19 19 25 28 31 30
33 33 38 41 40 39 42 42 40 38 38 37 32 26 23 22 21 17 14 13 14 6 7 8 3 2 1 5 7 6 13 22 19 25 26 28 30 31
35 34 38 45 43 40 41 41 36 33 36 36 33 30 29 27 23 17 15 15 13 9 11 8 4 4 1 4 5 10 15 14 16 27 31 31 31 32
35 36 40 45 42 39 40 39 38 36 34 35 36 36 35 30 25 22 18 15 12 12 11 8 6 4 3 4 6 8 13 15 20 27 32 33 34 34
32 34 40 43 42 40 39 36 36 38 39 37 33 39 33 31 29 27 24 21 18 13 10 10 8 6 5 4 4 7 10 11 23 28 32 32 32 31
34 31 27 29 30 28 31 33 35 34 33 35 40 39 37 37 33 29 25 24 12 16 14 11 9 5 4 3 1 2 10 15 20 26 29 34 32 30
35 29 27 30 30 33 33 32 35 35 33 40 40 41 40 38 37 30 28 24 21 19 17 14 10 6 3 1 1 3 8 15 20 22 22 25 31 27
32 31 30 32 32 31 31 36 36 37 40 41 40 41 40 38 38 34 31 25 20 20 18 14 10 8 3 1 1 6 10 16 21 22 22 19 20 25
32 30 29 31 31 32 33 32 31 33 38 38 38 39 41 42 37 34 33 29 27 23 18 14 10 9 6 6 5 1 8 13 15 20 25 30 25 15
29 30 30 29 31 33 34 33 35 38 36 37 35 40 41 42 34 35 32 31 31 25 22 17 13 11 10 7 3 3 5 8 9 14 20 24 21 13
30 31 33 33 34 35 36 35 34 33 35 36 37 39 40 41 39 38 35 35 32 28 24 20 16 12 9 5 4 3 6 8 7 8 11 7 9 10
30 31 31 35 38 38 38 37 36 36 37 37 38 40 41 38 38 37 36 35 34 30 28 24 17 12 11 7 5 4 6 11 14 12 19 12 19 18
Wind_Direction
191 197 198 207 205 206 205 196 155 164 223 224 206 222 225 225 226 227 228 232 238 244 250 255 265 279 285 293 298 307 312 318 318 321 323 324 327 328
196 198 207 214 217 215 212 209 214 196 188 212 211 209 221 223 224 227 228 231 235 244 249 254 264 272 282 289 298 306 313 317 317 320 322 325 326 329
202 199 204 208 218 220 218 219 220 222 213 163 212 212 222 220 220 222 224 229 235 242 251 257 264 271 278 289 300 308 314 316 318 320 325 324 325 328
194 199 200 204 212 218 218 219 214 221 217 158 196 202 215 216 217 219 222 228 232 240 250 256 261 267 278 291 302 306 312 311 315 321 320 322 327 327
196 198 196 199 201 204 208 206 214 213 210 189 170 190 208 206 199 210 218 223 231 238 244 252 258 268 281 294 301 309 309 308 317 317 322 329 327 327
197 196 194 200 196 204 206 208 204 199 202 194 179 183 196 204 204 198 207 217 227 235 243 254 257 273 279 293 305 303 307 310 311 319 325 327 328 330
196 203 205 208 210 218 207 205 205 197 195 193 186 183 183 188 194 200 204 216 225 230 235 251 264 275 283 303 303 306 305 308 318 323 327 330 328 330
193 204 209 214 217 218 217 217 211 200 196 192 195 200 201 202 192 192 190 182 214 222 222 253 265 270 298 304 303 303 309 313 324 328 333 331 331 332
193 196 199 212 216 215 212 217 225 221 218 212 205 210 205 205 197 188 191 185 187 177 180 236 263 277 298 300 304 308 310 323 325 333 334 332 331 332
200 202 205 208 212 213 215 213 214 218 220 221 221 216 213 207 211 207 194 188 168 168 199 241 263 310 301 303 302 302 303 319 330 334 336 335 334 338
198 204 209 216 222 217 210 208 209 214 218 218 217 217 215 217 205 193 177 179 168 193 213 240 298 316 305 302 291 287 311 323 333 338 340 341 343 342
196 206 206 215 217 214 203 197 194 209 209 207 206 207 204 191 194 198 206 191 163 182 208 192 223 356 331 297 271 303 313 327 337 343 343 344 349 344
186 190 198 208 213 210 205 202 208 206 205 203 199 191 190 189 188 193 194 211 199 180 171 173 167 212 291 305 310 317 328 333 345 347 344 350 353 352
187 193 197 209 210 211 207 210 205 202 198 193 190 183 186 186 184 191 198 200 203 213 184 192 189 200 211 299 296 324 335 336 348 347 342 351 354 353
190 195 201 210 210 209 213 204 201 202 195 185 190 198 200 189 180 181 182 178 171 161 169 185 206 203 224 254 297 330 347 343 350 345 343 350 352 354
189 190 199 201 202 203 199 196 195 201 197 193 188 198 190 181 179 182 174 170 162 145 158 171 186 203 231 264 307 336 345 336 345 349 342 348 359 359
173 169 171 174 177 180 182 183 189 194 187 190 192 190 183 181 179 182 181 174 169 161 163 174 184 204 247 273 347 351 342 341 350 348 347 345 357 360
161 165 174 176 178 182 179 174 184 186 184 192 189 185 180 179 181 179 183 185 164 166 172 181 183 181 196 78 9 335 349 342 345 349 350 341 339 0
164 177 181 182 182 181 177 177 179 186 191 190 191 187 183 182 180 178 182 179 161 168 176 176 180 185 144 165 201 5 351 346 342 347 349 342 321 348
173 180 188 184 177 175 175 177 179 179 185 186 185 183 182 179 175 177 182 176 168 169 168 170 170 180 174 169 165 30 0 347 341 345 344 341 343 354
181 182 184 184 176 175 176 180 180 180 178 177 175 177 179 177 172 177 178 179 173 172 163 161 160 150 140 125 117 82 7 351 356 348 344 337 331 343
188 183 178 175 176 177 178 178 178 175 175 175 176 176 175 177 176 175 175 170 176 174 163 158 156 146 139 123 107 41 360 36 34 15 7 343 321 329
186 182 176 180 179 179 179 177 176 177 176 174 175 175 175 172 179 176 171 177 172 166 161 155 156 152 131 122 103 46 17 28 17 19 26 20 17 18
Height
790 798 807 815 820 826 827 833 836 846 847 844 845 849 855 860 864 869 870 873 876 876 877 878 878 878 877 876 875 874 872 870 868 865 862 858 854 849
787 793 800 809 815 823 826 830 834 835 838 840 841 842 848 854 859 863 866 869 871 872 873 874 874 874 873 871 871 870 869 867 865 862 857 855 851 845
783 785 793 799 809 816 821 827 831 833 836 836 838 841 844 847 853 858 861 865 868 869 870 871 870 870 869 868 868 867 867 864 862 858 855 851 847 841
771 781 784 794 802 807 815 824 826 830 832 833 838 838 843 845 849 854 857 862 862 864 867 867 866 866 866 865 864 864 863 860 858 855 851 847 842 838
764 771 778 785 796 803 810 814 819 826 829 831 835 839 844 842 844 848 853 857 859 861 864 862 863 863 864 862 862 862 860 858 855 853 849 845 840 834
759 766 774 779 788 795 801 806 810 818 825 829 833 837 838 838 842 844 849 852 855 858 859 860 860 861 861 858 858 859 857 855 853 849 847 842 837 831
753 763 769 775 781 785 790 796 805 812 818 825 831 832 833 837 837 842 845 850 854 854 854 858 858 858 859 857 858 857 856 853 851 848 844 839 833 827
750 758 763 767 774 779 786 792 797 803 811 816 824 826 827 832 835 839 845 848 852 852 851 854 856 855 857 856 855 855 853 851 849 844 842 837 830 824
741 747 754 758 766 776 780 789 795 799 805 807 814 820 824 827 833 837 839 840 844 846 847 850 853 853 851 852 854 853 852 851 848 843 838 834 828 822
729 735 743 751 759 768 774 780 788 792 800 802 810 818 822 826 832 832 834 840 842 842 845 849 851 848 849 848 850 851 849 849 846 842 838 833 827 820
721 727 736 743 749 760 765 772 782 785 793 800 807 815 819 823 826 830 832 837 839 840 844 846 846 847 846 845 847 849 849 846 844 840 835 829 823 816
714 722 729 735 741 751 758 767 771 777 786 793 801 809 814 820 824 825 829 831 835 839 842 844 845 845 845 845 846 849 847 844 840 837 832 828 820 813
707 714 722 728 735 744 752 757 760 770 781 788 796 804 810 814 817 822 825 831 833 836 839 841 844 846 844 846 843 844 845 841 838 835 830 823 819 811
695 706 712 719 728 737 745 751 757 767 774 783 793 800 804 809 812 817 822 828 831 833 836 839 843 845 844 845 845 843 843 839 835 831 828 822 817 811
686 695 701 712 719 728 737 743 750 760 769 777 786 792 799 803 808 813 821 825 828 832 833 837 843 842 843 843 844 841 841 838 834 827 824 819 814 806
680 689 697 705 713 721 735 740 747 753 759 770 779 786 794 800 802 809 817 821 826 829 832 836 840 842 842 842 843 842 844 841 832 827 821 818 814 809
675 685 696 704 712 719 729 735 741 749 755 765 772 779 788 792 798 806 812 820 820 824 832 837 839 841 843 842 840 839 840 838 832 826 821 814 811 810
664 678 689 696 703 713 720 726 734 742 749 759 764 771 778 786 793 802 809 814 813 823 830 835 837 839 841 841 842 842 837 834 830 825 822 817 809 809
654 673 680 686 695 703 710 717 724 734 742 749 757 763 772 781 789 798 806 810 813 822 828 833 836 839 839 841 845 842 838 835 829 825 819 817 813 806
647 663 674 681 685 693 703 712 721 728 734 743 750 756 765 773 784 793 802 803 811 822 827 830 833 835 835 837 840 839 837 833 831 826 819 812 810 803
641 653 664 674 677 686 694 705 713 718 726 735 744 750 759 767 778 787 795 800 809 818 822 826 832 834 836 837 839 836 837 833 829 827 823 815 807 802
641 648 655 663 673 681 689 698 707 715 722 729 738 745 753 761 771 779 789 797 805 813 819 825 830 834 836 836 837 837 837 833 830 828 825 821 818 810
634 641 645 657 665 675 682 690 698 708 714 722 732 739 748 757 767 773 783 793 801 811 816 822 830 834 833 838 836 838 836 831 828 827 824 820 816 811